This is the latest recevied weather packets stored in our database for station/object EA5HRE-13. If no packets are shown the sender has not sent any weather packets the latest 10 day(s).
| Time | Temp. | Humidity | Pressure | Rain* | Wind** | Luminosity | Snow |
|---|---|---|---|---|---|---|---|
| 1787687700 | 26.67° C | 67% | 1012.3 hPa | 0 mm | - | - | - |
| 1787686799 | 26.67° C | 67% | 1012 hPa | 0 mm | - | - | - |
| 1787685899 | 26.67° C | 66% | 1011.7 hPa | 0 mm | - | - | - |
| 1787684999 | 27.22° C | 66% | 1011.4 hPa | 0 mm | - | - | - |
| 1787684098 | 27.22° C | 66% | 1011.3 hPa | 0 mm | - | - | - |
| 1787683198 | 27.22° C | 67% | 1011.2 hPa | 0 mm | - | - | - |
| 1787682297 | 27.78° C | 67% | 1011.1 hPa | 0 mm | - | - | - |
| 1787681397 | 27.78° C | 67% | 1011.1 hPa | 0 mm | - | - | - |
| 1787679596 | 28.33° C | 59% | 1011.2 hPa | 0 mm | - | - | - |
| 1787678696 | 28.33° C | 57% | 1011.2 hPa | 0 mm | - | - | - |
| 1787676896 | 28.89° C | 55% | 1011.3 hPa | 0 mm | - | - | - |
| 1787675995 | 28.89° C | 55% | 1011.4 hPa | 0 mm | - | - | - |
| 1787675095 | 28.89° C | 55% | 1011.5 hPa | 0 mm | - | - | - |
| 1787674193 | 29.44° C | 55% | 1011.6 hPa | 0 mm | - | - | - |
| 1787673293 | 29.44° C | 55% | 1011.7 hPa | 0 mm | - | - | - |
| 1787672392 | 30° C | 52% | 1011.5 hPa | 0 mm | - | - | - |
| 1787671492 | 30° C | 52% | 1011.6 hPa | 0 mm | - | - | - |
| 1787670592 | 30.56° C | 51% | 1011.7 hPa | 0 mm | - | - | - |
| 1787669691 | 30.56° C | 50% | 1011.9 hPa | 0 mm | - | - | - |
| 1787668792 | 30.56° C | 49% | 1012.1 hPa | 0 mm | - | - | - |
| 1787667891 | 30.56° C | 48% | 1012.4 hPa | 0 mm | - | - | - |
| 1787666990 | 30.56° C | 46% | 1012.6 hPa | 0 mm | - | - | - |
| 1787666089 | 31.11° C | 42% | 1012.8 hPa | 0 mm | - | - | - |
| 1787665190 | 31.11° C | 38% | 1012.9 hPa | 0 mm | - | - | - |
| 1787664290 | 31.67° C | 33% | 1013.1 hPa | 0 mm | - | - | - |
* Rain latest hour (hover to see other rain measurements)
** Current wind speed in m/s (hover to see current wind gust speed)